Regional Weather Roundup
Issued by NWS Jackson, KY

Home | Current Version | Previous Version | Graphics & Text | Print | Product List | Glossary On
Versions: 1 2 3 4 5 6 7 8 9 10 11 12 13 14 15 16 17 18 19 20 21 22 23 24 25 26 27 28 29 30 31 32 33 34 35 36 37 38 39 40 41 42 43 44 45 46 47 48 49
000
ASUS43 KJKL 040810
RWRJKL

EAST KENTUCKY HOURLY WEATHER ROUNDUP
NATIONAL WEATHER SERVICE JACKSON KY
300 AM EST WED MAR 04 2015

NOTE: "FAIR" INDICATES FEW OR NO CLOUDS BELOW 12,000 FEET WITH
NO SIGNIFICANT WEATHER AND/OR OBSTRUCTIONS TO VISIBILITY.

* THESE REPORTS ARE NOT UNDER NWS QUALITY CONTROL AND MAY NOT
  REPORT WEATHER SUCH AS PRECIPITATION AND FOG.

KYZ079-080-083-085-087-088-110-112-115-119-120-040900
...EASTERN KENTUCKY...

CITY           SKY/WX    TMP DP  RH WIND       PRES   REMARKS
JACKSON        HVY RAIN  51  50  96 NW7       29.86S FOG
LONDON         CLOUDY    62  55  77 S14G25    29.84F
SOMERSET*      CLOUDY    52  52 100 N9        29.89R
MONTICELLO*    CLOUDY    62  59  90 W9        29.89R
MIDDLESBORO*   CLOUDY    57  55  93 SW6       29.90S
HAZARD APT*    HVY RAIN  57  57 100 NW10      29.85F
BLACK MTN*       N/A     48  48 100 S16         N/A
PIKEVILLE APT* RAIN      57  55  94 N7        29.84S
BIG SANDY*     RAIN      54  52  95 NW7       29.87S
MOREHEAD APT*  LGT RAIN  45  45 100 NW6       29.90F
$$

KYZ035-036-041-042-044-050-067-078-099-040900
...CENTRAL KENTUCKY...

CITY           SKY/WX    TMP DP  RH WIND       PRES   REMARKS
MT STERLING*   DRIZZLE   45  45 100 NE5       29.89F
FLEMING/MASON* LGT RAIN  41  41 100 N5        29.87F VSB 1/2
DANVILLE*      CLOUDY    46  46 100 N5        29.88F
RICHMOND*      CLOUDY    48  46  93 CALM      29.87F
LEXINGTON      CLOUDY    43  42  97 N8        29.87F
FRANKFORT      LGT RAIN  43  41  93 NW3       29.88S FOG
$$

KYZ091>093-OHZ055-061-077-WVZ005-015-034-035-042-040900
...SOUTHERN OHIO/WEST VIRGINIA...

CITY           SKY/WX    TMP DP  RH WIND       PRES   REMARKS
COVINGTON      LGT RAIN  38  37  97 W6        29.90R FOG     WCI  33
COLUMBUS       RAIN      36  36 100 W6        29.87R FOG     WCI  31
DAYTON         RAIN      35  34  96 NW9       29.88R FOG     WCI  28
WILMINGTON     LGT RAIN  36  34  92 W7        29.86F FOG     WCI  30
HUNTINGTON     LGT RAIN  50  49  96 NW5       29.86R
CHARLESTON     RAIN      53  51  93 VRB6G16   29.86R FOG
PINEVILLE*     FOG       44  44 100 MISG      29.91S VSB 1/4
BECKLEY        LGT RAIN  52  50  93 SW18G30   29.85S
BLUEFIELD      CLOUDY    59  52  77 W24G31    29.88F
$$

VAZ002-007-008-TNZ017-027-036-066-071-040900
...SOUTHWEST VIRGINIA/EAST TENNESSEE...

CITY           SKY/WX    TMP DP  RH WIND       PRES   REMARKS
WISE*          RAIN      50  50 100 SW15      29.91S
JONESVILLE*    LGT RAIN  37  37 100 CALM      29.95S VSB 1/2
ABINGDON*      CLOUDY    45  45 100 CALM      29.91F FOG
BRISTOL        FOG       46  46 100 CALM      29.93F VSB 1
KNOXVILLE      LGT RAIN  57  56  96 W13       29.92F
OAK RIDGE      HVY RAIN  54  53  97 SW5       29.95S FOG
CROSSVILLE     LGT RAIN  60  58  92 SW8       29.93S FOG
NASHVILLE      PTCLDY    64  61  90 S12       29.85F
$$

...KEY TO REMARKS...
VSB - VISIBILITY IN MILES
WCI - WIND CHILL INDEX
HX  - HEAT INDEX

$$



USA.gov is the U.S. government's official web portal to all federal, state and local government web resources and services.